Flag for France Weather past 2 weeks in Biarritz, France

Now
66 °F

Overcast.


Feels Like: 66 °F
Forecast: 59 / 67 °F
Wind: 5 mph from East

Location: Biarritz Airport

Current Time: Sep 4, 2015 at 1:28:26 PM

Latest Report: Sep 4, 2015 at 1:00 PM


Visibility: N/A

Pressure: 30.12 "Hg

Humidity: 60%

Dew point: 52 °F

Location of BiarritzLocation

Historic Weather in Biarritz — Graph

°F

Biarritz temperature yesterday

Maximum temperature yesterday: 72 °F (at 3:00 PM)
Minimum temperature yesterday: 61 °F (at 1:00 AM)
Average temperature yesterday: 65 °F

Past Weeks' High & Low Weather Summary

 TemperatureHumidityPressure
High100 °F (Aug 29, 4:00 PM)100% (Aug 22, 9:30 PM)30.18 "Hg (Aug 22, 9:30 PM)
Low52 °F (Sep 4, 5:30 AM)25% (Aug 29, 4:00 PM)29.62 "Hg (Aug 23, 10:00 PM)
Average71 °F73%29.98 "Hg
* Reported Aug 20 12:00 Noon — Sep 4 12:00 Noon, Biarritz, Weather by CustomWeather, © 2015

Note: Actual official high and low records may vary slightly from our data, if they occured in-between our weather recording intervals... More about our weather records

Advertising

Biarritz weather history for previous 24 hours

 ConditionsComfort  
Time TempWeatherWind HumidityBarometerVisibility
12:00 PM
Fri, Sep 4
66 °FOvercast.7 mph60%30.12 "HgN/A
11:30 AM64 °FOvercast.6 mph64%30.12 "HgN/A
11:00 AM64 °FPartly sunny.3 mph64%30.09 "HgN/A
10:30 AM63 °FPartly sunny.6 mph73%30.09 "HgN/A
10:00 AM61 °FPartly sunny.3 mph72%30.09 "HgN/A
9:30 AM59 °FScattered clouds.2 mph77%30.09 "HgN/A
9:00 AM57 °FSunny.2 mph82%30.09 "Hg10 mi
8:30 AM55 °FPassing clouds.5 mph82%30.09 "HgN/A
8:00 AM54 °FPassing clouds.5 mph88%30.09 "HgN/A
7:30 AM52 °FClear.5 mph88%30.09 "Hg10 mi
7:00 AM54 °FClear.6 mph88%30.09 "Hg10 mi
6:30 AM54 °FClear.5 mph82%30.09 "Hg10 mi
6:00 AM52 °FClear.6 mph88%30.09 "Hg10 mi
5:30 AM52 °FClear.5 mph88%30.09 "Hg10 mi
5:00 AM54 °FClear.3 mph88%30.09 "Hg10 mi
4:30 AM54 °FPassing clouds.3 mph88%30.09 "HgN/A
4:00 AM54 °FClear.5 mph88%30.09 "Hg10 mi
3:30 AM54 °FClear.5 mph88%30.09 "Hg10 mi
3:00 AM55 °FClear.3 mph82%30.09 "Hg10 mi
2:30 AM55 °FClear.3 mph82%30.12 "Hg10 mi
2:00 AM55 °FClear.5 mph82%30.12 "Hg10 mi
1:30 AM55 °FClear.5 mph88%30.12 "Hg10 mi
1:00 AM57 °FPassing clouds.5 mph82%30.12 "HgN/A
12:30 AM59 °FPassing clouds.5 mph82%30.12 "HgN/A
11:30 PM
Thu, Sep 3
61 °FOvercast.5 mph77%30.12 "HgN/A
11:00 PM63 °FPassing clouds.3 mph68%30.12 "HgN/A
10:30 PM64 °FClear.3 mph64%30.12 "Hg10 mi
10:00 PM64 °FPassing clouds.3 mph64%30.09 "HgN/A
9:30 PM64 °FPassing clouds.7 mph68%30.09 "HgN/A
9:00 PM64 °FSunny.6 mph68%30.09 "Hg10 mi
8:30 PM66 °FScattered clouds.7 mph60%30.09 "HgN/A
8:00 PM66 °FPassing clouds.7 mph60%30.09 "HgN/A
7:30 PM68 °FPassing clouds.8 mph60%30.07 "HgN/A
7:00 PM68 °FPassing clouds.8 mph64%30.07 "HgN/A
6:30 PM70 °FScattered clouds.9 mph60%30.07 "HgN/A
6:00 PM70 °FScattered clouds.8 mph57%30.07 "HgN/A
5:30 PM70 °FPartly sunny.10 mph60%30.07 "HgN/A
5:00 PM70 °FPassing clouds.9 mph60%30.07 "HgN/A
4:30 PM70 °FPassing clouds.9 mph60%30.07 "HgN/A
4:00 PM70 °FPassing clouds.10 mph60%30.07 "HgN/A
3:30 PM72 °FPassing clouds.10 mph57%30.07 "HgN/A
3:00 PM72 °FPassing clouds.8 mph53%30.07 "HgN/A
2:30 PM70 °FPassing clouds.6 mph53%30.07 "HgN/A
2:00 PM68 °FPassing clouds.6 mph64%30.07 "HgN/A
1:30 PM68 °FOvercast.6 mph64%30.07 "HgN/A
1:00 PM66 °FPassing clouds.5 mph78%30.07 "HgN/A
Weather by CustomWeather, © 2015

See weather overviewHow to use our weather pages